, FL

(GMT )
Crestview

Weather History for KEGI - May, 2014

Change the Weather History Date:

Friday, May 16, 2014

  Actual Average Record
Temperature  
Mean Temperature 63 °F -  
Max Temperature 78 °F - - ()
Min Temperature 49 °F - - ()
Degree Days  
Heating Degree Days 2    
Growing Degree Days 13 (Base 50)    
Moisture  
Dew Point 49 °F    
Average Humidity 61    
Maximum Humidity 90    
Minimum Humidity 36    
Precipitation  
Precipitation 0.00 in - - ()
Sea Level Pressure  
Sea Level Pressure 30.15 in    
Wind  
Wind Speed 6 mph (WNW)    
Max Wind Speed 14 mph    
Max Gust Speed 22 mph    
Visibility 10 miles    
Events      
T = Trace of Precipitation, MM = Missing Value Source: NWS Daily Summary

Daily Weather History Graph

Daily Weather History Graph

Search for Another Location

Airport or City:

Trip Planner

Search our weather history database for the weather conditions in past years. The results will help you decide how hot, cold, wet, or windy it might be!

Date:

Astronomy

May. 16, 2014 Rise Set
Actual Time 5:50 AM CDT 7:34 PM CDT
Civil Twilight 5:24 AM CDT 8:00 PM CDT
Nautical Twilight 4:52 AM CDT 8:32 PM CDT
Astronomical Twilight 4:19 AM CDT 9:06 PM CDT
Moon 9:41 PM CDT (5/16) 7:32 AM CDT (5/16)
Length of Visible Light 14h 36m
Length of Day
13h 43m
Waning Gibbous, 95% of the Moon is Illuminated
May 16
Waning Gibbous
May 21
Last Quarter
May 28
New
Jun 5
First Quarter
Jun 12
Full

Hourly Weather History & Observations

Time (CDT) Temp. Dew Point Humidity Pressure Visibility Wind Dir Wind Speed Gust Speed Precip Events Conditions
12:58 AM 51.3 °F 46.4 °F 83% 30.16 in 10.0 mi NNW 4.6 mph - N/A   Clear
1:58 AM 50.4 °F 46.6 °F 87% 30.16 in 10.0 mi NW 4.6 mph - N/A   Clear
2:58 AM 50.7 °F 47.7 °F 89% 30.15 in 10.0 mi NW 1.2 mph - N/A   Clear
3:58 AM 49.5 °F 46.0 °F 88% 30.14 in 10.0 mi WNW 2.3 mph - N/A   Clear
4:58 AM 50.7 °F 45.5 °F 82% 30.14 in 10.0 mi NW 1.2 mph - N/A   Clear
5:58 AM 49.1 °F 46.2 °F 90% 30.15 in 10.0 mi WNW 1.2 mph - N/A   Clear
6:58 AM 52.7 °F 48.0 °F 84% 30.18 in 10.0 mi West 5.8 mph - N/A   Clear
7:58 AM 58.6 °F 46.6 °F 64% 30.19 in 10.0 mi West 4.6 mph - N/A   Clear
8:55 AM 65.1 °F 43.7 °F 46% 30.19 in 10.0 mi NW 9.2 mph - N/A   Clear
9:55 AM 69.3 °F 42.6 °F 38% 30.19 in 10.0 mi NW 12.7 mph - N/A   Clear
10:56 AM 71.4 °F 43.5 °F 37% 30.19 in 10.0 mi NNW 12.7 mph 21.9 mph N/A   Partly Cloudy
11:56 AM 73.9 °F 45.5 °F 36% 30.17 in 10.0 mi NW 13.8 mph 19.6 mph N/A   Partly Cloudy
12:59 PM 75.6 °F 46.8 °F 36% 30.16 in 10.0 mi WNW 12.7 mph 21.9 mph N/A   Partly Cloudy
1:55 PM 76.5 °F 48.9 °F 38% 30.14 in 10.0 mi WNW 9.2 mph - N/A   Partly Cloudy
2:59 PM 77.2 °F 50.0 °F 38% 30.12 in 10.0 mi NW 10.4 mph - N/A   Partly Cloudy
3:55 PM 76.6 °F 50.7 °F 40% 30.11 in 10.0 mi WNW 6.9 mph 17.3 mph N/A   Scattered Clouds
4:55 PM 77.4 °F 51.3 °F 40% 30.10 in 10.0 mi West 11.5 mph - N/A   Scattered Clouds
5:55 PM 76.5 °F 50.4 °F 40% 30.10 in 10.0 mi WNW 10.4 mph - N/A   Scattered Clouds
6:55 PM 73.9 °F 51.1 °F 45% 30.09 in 10.0 mi WNW 4.6 mph - N/A   Partly Cloudy
7:55 PM 66.0 °F 52.3 °F 61% 30.11 in 10.0 mi SSE 2.3 mph - N/A   Clear
8:55 PM 68.2 °F 54.3 °F 61% 30.13 in 10.0 mi WSW 9.2 mph - N/A   Partly Cloudy
9:55 PM 66.4 °F 54.7 °F 66% 30.15 in 10.0 mi WNW 1.2 mph - N/A   Partly Cloudy
10:55 PM 59.5 °F 55.2 °F 86% 30.18 in 10.0 mi Calm Calm - N/A   Partly Cloudy
11:55 PM 58.3 °F 55.2 °F 90% 30.17 in 10.0 mi East 2.3 mph - N/A   Partly Cloudy